Greenville, AL

4:40 AM CDT on May 23, 2018 (GMT -0500)
Greenville Municipal

Weather History for KPRN - December, 2012

Change the Weather History Date:

Sunday, December 16, 2012

  Actual Average Record
Temperature  
Mean Temperature 64 °F -  
Max Temperature 71 °F 60 °F 79 °F (1933)
Min Temperature 57 °F 37 °F 16 °F (1968)
Degree Days  
Heating Degree Days 1    
Growing Degree Days 14 (Base 50)    
Moisture  
Dew Point 59 °F    
Average Humidity 90    
Maximum Humidity 100    
Minimum Humidity 73    
Precipitation  
Precipitation 0.97 in - - ()
Sea Level Pressure  
Sea Level Pressure 29.93 in    
Wind  
Wind Speed 5 mph (SE)    
Max Wind Speed 13 mph    
Max Gust Speed 20 mph    
Visibility 7 miles    
Events Fog , Rain    
Averages and records for this station are not official NWS values.
T = Trace of Precipitation, MM = Missing Value Source: NWS Daily Summary

Daily Weather History Graph

Daily Weather History Graph

Search for Another Location

Airport or City:

Astronomy

Dec. 16, 2012 Rise Set
Actual Time 6:40 AM CST 4:44 PM CST
Civil Twilight 6:13 AM CST 5:11 PM CST
Nautical Twilight 5:42 AM CST 5:42 PM CST
Astronomical Twilight 5:12 AM CST 6:11 PM CST
Moon 9:23 AM CST (12/16) 8:46 PM CST (12/16)
Length of Visible Light 10h 58m
Length of Day
10h 04m
Waxing Crescent, 16% of the Moon is Illuminated
Dec 16
Waxing Crescent
Dec 19
First Quarter
Dec 28
Full
Jan 4
Last Quarter
Jan 11
New

Hourly Weather History & Observations

Time (CST) Temp. Dew Point Humidity Pressure Visibility Wind Dir Wind Speed Gust Speed Precip Events Conditions
12:56 AM 57.0 °F 55.0 °F 93% 30.00 in 10.0 mi SSE 4.6 mph - N/A   Mostly Cloudy
1:05 AM 57.2 °F 55.4 °F 94% 30.00 in 10.0 mi SSE 4.6 mph - N/A   Scattered Clouds
1:13 AM 57.2 °F 55.4 °F 94% 29.99 in 10.0 mi SSE 4.6 mph - N/A   Mostly Cloudy
1:56 AM 57.9 °F 55.9 °F 93% 29.99 in 10.0 mi Calm Calm - N/A   Mostly Cloudy
2:22 AM 57.2 °F 57.2 °F 100% 30.00 in 10.0 mi SSE 3.5 mph - N/A   Overcast
2:54 AM 59.0 °F 57.2 °F 94% 29.98 in 8.0 mi Calm Calm - N/A   Overcast
2:56 AM 59.0 °F 57.0 °F 93% 29.97 in 9.0 mi Calm Calm - N/A   Overcast
3:18 AM 59.0 °F 57.2 °F 94% 29.98 in 8.0 mi Calm Calm - N/A   Overcast
3:31 AM 59.0 °F 57.2 °F 94% 29.98 in 8.0 mi Calm Calm - N/A   Overcast
4:56 AM 59.0 °F 57.0 °F 93% 29.96 in 7.0 mi SE 3.5 mph - N/A   Overcast
5:56 AM 59.0 °F 57.9 °F 96% 29.96 in 3.0 mi SE 3.5 mph - N/A   Overcast
6:05 AM 59.0 °F 57.2 °F 94% 29.96 in 2.0 mi SE 3.5 mph - N/A   Overcast
6:14 AM 59.0 °F 57.2 °F 94% 29.97 in 1.5 mi Calm Calm - N/A   Overcast
6:31 AM 60.8 °F 59.0 °F 94% 29.97 in 0.5 mi Variable 3.5 mph - N/A Fog Fog
6:56 AM 60.1 °F 59.0 °F 96% 29.98 in 0.8 mi South 3.5 mph - N/A   Mist
7:56 AM 61.0 °F 60.1 °F 97% 29.99 in 0.2 mi SSE 3.5 mph - N/A Fog Fog
8:56 AM 61.0 °F 61.0 °F 100% 29.99 in 0.8 mi SSE 4.6 mph - 0.00 in   Mist
9:08 AM 62.6 °F 60.8 °F 94% 29.99 in 1.2 mi SSE 6.9 mph - N/A   Overcast
9:17 AM 62.6 °F 60.8 °F 94% 29.98 in 3.0 mi SSE 6.9 mph - N/A   Overcast
9:56 AM 64.0 °F 62.1 °F 93% 29.96 in 6.0 mi South 6.9 mph - N/A   Overcast
10:52 AM 66.2 °F 62.6 °F 88% 29.95 in 10.0 mi South 10.4 mph - N/A   Overcast
10:56 AM 66.9 °F 62.1 °F 84% 29.94 in 10.0 mi South 9.2 mph - N/A   Overcast
11:39 AM 69.8 °F 62.6 °F 78% 29.93 in 10.0 mi South 6.9 mph - N/A   Overcast
11:56 AM 70.0 °F 63.0 °F 78% 29.91 in 10.0 mi South 8.1 mph - N/A   Overcast
12:29 PM 69.8 °F 62.6 °F 78% 29.91 in 10.0 mi SSE 11.5 mph - N/A   Overcast
12:56 PM 70.0 °F 63.0 °F 78% 29.88 in 10.0 mi South 8.1 mph - N/A   Overcast
1:14 PM 71.6 °F 62.6 °F 73% 29.90 in 10.0 mi South 6.9 mph - N/A   Overcast
1:37 PM 69.8 °F 62.6 °F 78% 29.89 in 10.0 mi South 8.1 mph - N/A   Overcast
1:56 PM 71.1 °F 63.0 °F 75% 29.87 in 10.0 mi South 4.6 mph - N/A   Overcast
2:07 PM 71.6 °F 62.6 °F 73% 29.87 in 10.0 mi Variable 3.5 mph - N/A   Overcast
2:19 PM 69.8 °F 62.6 °F 78% 29.87 in 10.0 mi SE 6.9 mph - N/A   Overcast
2:56 PM 70.0 °F 64.0 °F 81% 29.84 in 10.0 mi SSE 6.9 mph - 0.00 in   Overcast
3:56 PM 70.0 °F 64.0 °F 81% 29.83 in 10.0 mi South 8.1 mph - N/A   Overcast
4:06 PM 71.6 °F 64.4 °F 78% 29.86 in 10.0 mi South 6.9 mph 16.1 mph N/A   Overcast
4:20 PM 69.8 °F 64.4 °F 83% 29.86 in 10.0 mi South 8.1 mph - N/A   Overcast
4:56 PM 70.0 °F 64.0 °F 81% 29.86 in 10.0 mi Calm Calm - N/A   Overcast
5:21 PM 62.6 °F 59.0 °F 88% 29.86 in 10.0 mi NE 8.1 mph - 0.00 in Rain Light Rain
5:56 PM 59.0 °F 57.0 °F 93% 29.89 in 4.0 mi North 11.5 mph - 0.13 in Rain Heavy Rain
6:12 PM 57.2 °F 57.2 °F 100% 29.91 in 1.5 mi North 10.4 mph - 0.24 in Rain Heavy Rain
6:25 PM 57.2 °F 57.2 °F 100% 29.92 in 2.0 mi NNE 9.2 mph - 0.46 in Rain Rain
6:33 PM 57.2 °F 57.2 °F 100% 29.91 in 10.0 mi NNE 11.5 mph - 0.46 in Rain Light Rain
6:47 PM 57.2 °F 55.4 °F 94% 29.91 in 10.0 mi NE 10.4 mph 17.3 mph 0.46 in   Overcast
6:56 PM 57.9 °F 55.9 °F 93% 29.90 in 10.0 mi NE 11.5 mph 19.6 mph 0.46 in   Overcast
7:16 PM 57.2 °F 55.4 °F 94% 29.95 in 10.0 mi NNW 12.7 mph 17.3 mph 0.03 in Rain Light Rain
7:30 PM 57.2 °F 57.2 °F 100% 29.97 in 1.8 mi North 11.5 mph - 0.17 in Rain Heavy Rain
7:38 PM 57.2 °F 57.2 °F 100% 29.98 in 2.5 mi North 8.1 mph - 0.21 in Rain Heavy Rain
7:40 PM 57.2 °F 57.2 °F 100% 29.98 in 3.0 mi North 8.1 mph - 0.22 in Rain Heavy Rain
7:56 PM 57.9 °F 55.9 °F 93% 29.96 in 6.0 mi NNE 8.1 mph - 0.25 in Rain Rain
8:56 PM 57.9 °F 55.9 °F 93% 29.94 in 10.0 mi ENE 5.8 mph - 0.03 in Rain Light Rain
9:56 PM 57.9 °F 55.9 °F 93% 29.95 in 10.0 mi Calm Calm - 0.00 in   Overcast
10:56 PM 57.0 °F 55.9 °F 96% 29.94 in 10.0 mi Calm Calm - 0.08 in Rain Light Rain
11:22 PM 57.2 °F 55.4 °F 94% 29.91 in 10.0 mi ESE 8.1 mph - 0.02 in Rain Light Rain
11:56 PM 57.0 °F 55.9 °F 96% 29.87 in 10.0 mi SE 6.9 mph - 0.02 in Rain Light Rain